Weather in Bissau

Guinea-Bissau     11°52′24″N   15°36′30″W
temp.,
°C
wind,
m/s
gust,
m/s
humid.,
%
clouds,
%
prec.,
mm/h
press.,
hPa
HPBL,
m
15 april, thu
thu1500:00+26ssw787544 0.0 1012512
03:00+25ssw568159 0.0 1011448
06:00+25sw67830 0.0 1010450
09:00+26w447716 0.0 1012575
12:00+26sw53729 0.0 1012443
15:00+26sw75705 0.0 1009404
18:00+26wsw89705 0.0 1008365
21:00+26wsw896987 0.0 1010382
16 april, fri
fri1600:00+25wsw56705 0.0 1012482
03:00+25w457068 0.0 1010347
06:00+25wnw676716 0.0 1010345
09:00+24nw235996 0.0 1011294
12:00+27ssw214852 0.0 1011280
15:00+25wsw94667 0.0 1008423
18:00+26wsw9107399 0.0 1007361
21:00+26w910705 0.0 1009388
17 april, sat
sat1700:00+25wnw796366 0.0 1010348
03:00+24wnw45617 0.0 1009291
06:00+24nw456398 0.0 1010246
09:00+25nnw335518 0.0 1012337
12:00+27wsw32475 0.0 1012380
15:00+26wsw745620 0.0 1008472
18:00+26wsw10106995 0.0 1008375
21:00+25w8970100 0.0 1010455
18 april, sun
sun1800:00+25w78682 0.0 1011379
03:00+24nw456694 0.0 1010305
06:00+23nw4565100 0.0 1011257
09:00+25nnw3358100 0.0 1013305
12:00+29wsw123835 0.0 1012288
15:00+26wsw855641 0.0 1008512
18:00+26wsw101069100 0.0 1008382
21:00+26wsw81071100 0.0 1010481
19 april, mon
mon1900:00+25w6868100 0.0 1012437
03:00+25wnw5665100 0.0 1010374
06:00+24wnw4465100 0.0 1011261
09:00+25wnw3360100 0.0 1013297
12:00+27sw2247100 0.0 1012289
15:00+27sw7457100 0.0 1008410
18:00+26wsw996828 0.0 1008312
21:00+26wsw897015 0.0 1010376